Flag for Turkey Weather past 2 weeks in Bodrum, Turkey

Now
56 °F

Overcast.


Feels Like: 56 °F
Forecast: 51 / 62 °F
Wind: 1 mph from Northeast

Location: Bodrum

Current Time: Mar 29, 2015 at 4:35:39 AM

Latest Report: Mar 29, 2015 at 2:00 AM


Visibility: 13 mi

Pressure: 29.75 "Hg

Humidity: 94%

Dew point: 54 °F

Location of BodrumLocation

Historic Weather in Bodrum — Graph

°F

Bodrum temperature yesterday

Maximum temperature yesterday: 64 °F (at 11:00 AM)
Minimum temperature yesterday: 55 °F (at 9:00 AM)
Average temperature yesterday: 62 °F

Past Weeks' High & Low Weather Summary

 TemperatureHumidityPressure
High69 °F (Mar 24, 3:00 PM)95% (Mar 24, 8:00 AM)30.27 "Hg (Mar 24, 8:00 AM)
Low43 °F (Mar 21, 5:00 AM)35% (Mar 19, 4:00 PM)29.65 "Hg (Mar 28, 8:00 AM)
Average58 °F61%30.03 "Hg
* Reported Mar 14 2:00 AM — Mar 29 2:00 AM, Bodrum, Weather by CustomWeather, © 2015

Note: Actual official high and low records may vary slightly from our data, if they occured in-between our weather recording intervals... More about our weather records

Advertising

Bodrum weather history for previous 24 hours

 ConditionsComfort  
Time TempWeatherWind HumidityBarometerVisibility
2:00 AM
Sun, Mar 29
56 °FOvercast.1 mph94%29.75 "Hg12 mi
11:00 PM
Sat, Mar 28
59 °FOvercast.1 mph87%29.77 "Hg12 mi
8:00 PM61 °FPassing clouds.6 mph72%29.73 "Hg12 mi
7:00 PM61 °FPassing clouds.8 mph75%29.72 "Hg12 mi
6:00 PM63 °FPassing clouds.12 mph73%29.71 "Hg12 mi
5:00 PM63 °FOvercast.14 mph71%29.69 "Hg12 mi
4:00 PM62 °FOvercast.14 mph78%29.68 "Hg12 mi
3:00 PM63 °FOvercast.12 mph74%29.68 "Hg12 mi
2:00 PM64 °FOvercast.14 mph70%29.67 "Hg12 mi
1:00 PM64 °FOvercast.14 mph71%29.68 "Hg12 mi
12:00 PM64 °FOvercast.14 mph71%29.68 "Hg12 mi
11:00 AM64 °FOvercast.13 mph73%29.68 "Hg12 mi
10:00 AM60 °FOvercast.5 mph72%29.68 "Hg12 mi
9:00 AM55 °FThunderstorms. Overcast.5 mph86%29.68 "Hg12 mi
8:00 AM64 °FOvercast.3 mph71%29.65 "Hg12 mi
5:00 AM60 °FPassing clouds.3 mph81%29.65 "Hg12 mi
Weather by CustomWeather, © 2015

See weather overviewHow to use our weather pages